Custer, SD

3:47 AM MDT on September 27, 2016 (GMT -0600)
Custer County

Weather History for KCUT - November, 2010

Change the Weather History Date:

Wednesday, November 17, 2010

  Actual Average Record
Temperature  
Mean Temperature 20 °F 31 °F  
Max Temperature 26 °F 41 °F 68 °F (1975)
Min Temperature 14 °F 21 °F -15 °F (1959)
Degree Days  
Heating Degree Days 45 34  
Month to date heating degree days 475 519  
Since 1 July heating degree days 1430 1698  
Cooling Degree Days 0 0  
Month to date cooling degree days 0 0  
Year to date cooling degree days 179 177  
Moisture  
Dew Point 22 °F    
Average Humidity 91    
Maximum Humidity 100    
Minimum Humidity 81    
Precipitation  
Precipitation 0.09 in 0.02 in 0.17 in (1971)
Month to date precipitation 0.19 0.39  
Year to date precipitation 19.72 18.35  
Sea Level Pressure  
Sea Level Pressure 30.13 in    
Wind  
Wind Speed 3 mph (WSW)    
Max Wind Speed 9 mph    
Max Gust Speed 13 mph    
Visibility 6 miles    
Events Rain , Snow    
T = Trace of Precipitation, MM = Missing Value Source: NWS Daily Summary

Daily Weather History Graph

Daily Weather History Graph

Search for Another Location

Airport or City:

Trip Planner

Search our weather history database for the weather conditions in past years. The results will help you decide how hot, cold, wet, or windy it might be!

Date:

Astronomy

Nov. 17, 2010 Rise Set
Actual Time 6:51 AM MST 4:27 PM MST
Civil Twilight 6:20 AM MST 4:58 PM MST
Nautical Twilight 5:45 AM MST 5:33 PM MST
Astronomical Twilight 5:11 AM MST 6:07 PM MST
Moon 2:05 PM MST (11/17) 2:46 AM MST (11/17)
Length of Visible Light 10h 38m
Length of Day
9h 35m
Waxing Gibbous, 85% of the Moon is Illuminated
Nov 17
Waxing Gibbous
Nov 21
Full
Nov 28
Last Quarter
Dec 5
New
Dec 13
First Quarter

Hourly Weather History & Observations

Time (MST) Temp. Windchill Dew Point Humidity Pressure Visibility Wind Dir Wind Speed Gust Speed Precip Events Conditions
12:08 AM 24.8 °F - 24.8 °F 100% 29.93 in 1.0 mi Calm Calm - 0.01 in Snow Light Snow
12:43 AM 26.6 °F - 24.8 °F 93% 29.94 in 1.2 mi Calm Calm - 0.03 in Snow Light Snow
12:53 AM 25.0 °F - 24.1 °F 96% 30.02 in 1.8 mi Calm Calm - 0.03 in Snow Light Snow
1:16 AM 24.8 °F - 24.8 °F 100% 29.95 in 1.2 mi Calm Calm - 0.01 in Snow Light Snow
1:43 AM 24.8 °F - 24.8 °F 100% 29.97 in 2.5 mi Calm Calm - 0.02 in Snow Light Snow
1:53 AM 26.1 °F - 24.1 °F 92% 30.06 in 6.0 mi Calm Calm - 0.02 in Snow Light Snow
2:10 AM 26.6 °F - 24.8 °F 93% 29.98 in 6.0 mi Calm Calm - 0.00 in Snow Light Snow
2:20 AM 26.6 °F - 24.8 °F 93% 29.99 in 7.0 mi Calm Calm - 0.00 in Snow Light Snow
2:53 AM 25.0 °F 20.7 °F 24.1 °F 96% 30.09 in 2.5 mi SSE 3.5 mph - 0.01 in Snow Light Snow
3:02 AM 24.8 °F 20.5 °F 24.8 °F 100% 30.01 in 3.0 mi South 3.5 mph - 0.00 in Snow Light Snow
3:14 AM 24.8 °F - 24.8 °F 100% 30.01 in 4.0 mi Calm Calm - 0.00 in Snow Light Snow
3:44 AM 24.8 °F 20.5 °F 24.8 °F 100% 30.02 in 2.5 mi SSE 3.5 mph - 0.01 in Snow Light Snow
3:53 AM 25.0 °F - 24.1 °F 96% 30.12 in 2.0 mi Calm Calm - 0.01 in Snow Light Snow
4:10 AM 24.8 °F 20.5 °F 23.0 °F 93% 30.03 in 4.0 mi South 3.5 mph - 0.01 in Snow Light Snow
4:40 AM 24.8 °F - 23.0 °F 93% 30.04 in 3.0 mi Calm Calm - 0.01 in Snow Light Snow
4:53 AM 25.0 °F - 23.0 °F 92% 30.16 in 6.0 mi Calm Calm - 0.01 in Snow Light Snow
5:06 AM 24.8 °F 20.5 °F 23.0 °F 93% 30.06 in 7.0 mi SSW 3.5 mph - 0.00 in   Overcast
5:18 AM 24.8 °F - 24.8 °F 100% 30.06 in 6.0 mi Calm Calm - 0.00 in   Overcast
5:26 AM 24.8 °F - 24.8 °F 100% 30.06 in 4.0 mi Calm Calm - 0.00 in   Overcast
5:53 AM 25.0 °F - 24.1 °F 96% 30.17 in 5.0 mi Calm Calm - 0.00 in   Overcast
6:42 AM 24.8 °F - 24.8 °F 100% 30.07 in 6.0 mi Calm Calm - N/A   Overcast
6:53 AM 25.0 °F - 24.1 °F 96% 30.19 in 7.0 mi Calm Calm - N/A   Overcast
7:02 AM 24.8 °F 17.9 °F 21.2 °F 86% 30.08 in 5.0 mi West 5.8 mph - N/A   Overcast
7:31 AM 24.8 °F 19.1 °F 23.0 °F 93% 30.10 in 2.5 mi North 4.6 mph - 0.01 in Rain Light Freezing Rain
7:44 AM 24.8 °F 16.1 °F 21.2 °F 86% 30.10 in 1.8 mi North 8.1 mph - 0.01 in Snow Light Snow
7:53 AM 24.1 °F 16.0 °F 21.9 °F 91% 30.22 in 1.5 mi North 6.9 mph - 0.01 in Snow Light Snow
8:14 AM 24.8 °F 19.1 °F 21.2 °F 86% 30.12 in 2.5 mi North 4.6 mph - 0.01 in   Overcast
8:17 AM 24.8 °F 16.1 °F 21.2 °F 86% 30.12 in 3.0 mi North 8.1 mph - 0.01 in   Overcast
8:53 AM 24.1 °F 15.2 °F 21.0 °F 88% 30.25 in 10.0 mi North 8.1 mph - 0.01 in   Overcast
9:01 AM 24.8 °F 16.9 °F 19.4 °F 80% 30.13 in 10.0 mi North 6.9 mph - N/A   Overcast
9:21 AM 24.8 °F 20.5 °F 21.2 °F 86% 30.14 in 10.0 mi North 3.5 mph - N/A   Overcast
9:53 AM 24.1 °F 19.7 °F 19.9 °F 84% 30.28 in 10.0 mi North 3.5 mph - N/A   Overcast
10:05 AM 24.8 °F - 19.4 °F 80% 30.15 in 10.0 mi Calm Calm - N/A   Overcast
10:53 AM 24.1 °F 19.7 °F 21.0 °F 88% 30.30 in 6.0 mi NNW 3.5 mph - N/A   Overcast
11:06 AM 24.8 °F - 21.2 °F 86% 30.16 in 2.0 mi Calm Calm - 0.00 in Snow Light Snow
11:12 AM 24.8 °F - 21.2 °F 86% 30.16 in 3.0 mi Calm Calm - 0.00 in   Overcast
11:53 AM 25.0 °F - 21.9 °F 88% 30.28 in 8.0 mi Calm Calm - 0.00 in   Overcast
12:53 PM 25.0 °F 18.1 °F 23.0 °F 92% 30.27 in 10.0 mi SSW 5.8 mph - N/A   Overcast
1:53 PM 25.0 °F 19.3 °F 21.9 °F 88% 30.25 in 10.0 mi Variable 4.6 mph - N/A   Overcast
2:09 PM 24.8 °F 19.1 °F 21.2 °F 86% 30.13 in 10.0 mi SSW 4.6 mph - N/A   Overcast
2:30 PM 24.8 °F 16.9 °F 21.2 °F 86% 30.13 in 10.0 mi SSW 6.9 mph - N/A   Overcast
2:53 PM 25.0 °F 18.1 °F 23.0 °F 92% 30.25 in 10.0 mi SSW 5.8 mph - N/A   Overcast
3:10 PM 24.8 °F 19.1 °F 19.4 °F 80% 30.12 in 10.0 mi SW 4.6 mph - N/A   Overcast
3:23 PM 24.8 °F 19.1 °F 21.2 °F 86% 30.12 in 10.0 mi SSW 4.6 mph - N/A   Overcast
3:28 PM 24.8 °F 19.1 °F 21.2 °F 86% 30.12 in 10.0 mi Variable 4.6 mph - N/A   Overcast
3:53 PM 23.0 °F 15.8 °F 21.0 °F 92% 30.26 in 10.0 mi SSW 5.8 mph - N/A   Overcast
4:53 PM 21.9 °F 15.7 °F 19.9 °F 92% 30.26 in 10.0 mi Variable 4.6 mph - N/A   Overcast
5:53 PM 21.0 °F 13.4 °F 19.9 °F 96% 30.27 in 10.0 mi SSW 5.8 mph - N/A   Overcast
6:53 PM 21.0 °F 14.6 °F 19.9 °F 96% 30.25 in 9.0 mi Variable 4.6 mph - N/A   Overcast
7:53 PM 19.9 °F 13.4 °F 19.0 °F 96% 30.24 in 3.0 mi SW 4.6 mph - N/A   Overcast
8:42 PM 19.4 °F - 17.6 °F 93% 30.08 in 10.0 mi Calm Calm - N/A   Partly Cloudy
8:53 PM 19.0 °F - 17.1 °F 92% 30.22 in 10.0 mi Calm Calm - N/A   Partly Cloudy
9:53 PM 18.0 °F - 15.1 °F 88% 30.22 in 10.0 mi Calm Calm - N/A   Clear
10:53 PM 16.0 °F 10.4 °F 14.0 °F 92% 30.21 in 10.0 mi SW 3.5 mph - N/A   Clear
11:53 PM 19.9 °F 10.1 °F 18.0 °F 92% 30.16 in 10.0 mi WSW 8.1 mph - N/A   Clear